Overview Statistics Trail Chart Weather Telemetry Raw packets
 

This is the latest recevied weather packets stored in our database for station/object K0QED. If no packets are shown the sender has not sent any weather packets the latest 10 day(s).

<< 111 112 113 114 >>
Time Temp. Humidity Pressure Rain* Wind** Luminosity Snow
1787779989 22.22° C 59% 1031.6 hPa 0 mm - 65 W/m² -
1787779684 22.22° C 58% 1031.5 hPa 0 mm - 92 W/m² -
1787779383 22.22° C 58% 1031.5 hPa 0 mm - 141 W/m² -
1787779078 22.78° C 58% 1031.7 hPa 0 mm - 150 W/m² -
1787778772 22.78° C 57% 1031.7 hPa 0 mm - 199 W/m² -
1787778468 22.78° C 57% 1031.7 hPa 0 mm - 187 W/m² -
1787778164 22.78° C 58% 1031.7 hPa 0 mm - 212 W/m² -
1787777864 22.22° C 58% 1031.5 hPa 0 mm - 235 W/m² -
1787777560 22.22° C 58% 1031.9 hPa 0 mm - 155 W/m² -
1787777254 22.22° C 59% 1031.6 hPa 0 mm - 99 W/m² -
1787776954 22.22° C 56% 1031.9 hPa 0 mm - 97 W/m² -
1787776653 22.22° C 56% 1031.6 hPa 0 mm - 113 W/m² -
1787776352 22.22° C 56% 1032 hPa 0 mm - 100 W/m² -
1787776050 22.22° C 56% 1032.1 hPa 0 mm - 83 W/m² -
1787775745 22.78° C 57% 1032.4 hPa 0 mm - 72 W/m² -
1787775444 22.78° C 56% 1032.2 hPa 0 mm - 62 W/m² -
1787775142 22.78° C 55% 1032.1 hPa 0 mm - 74 W/m² -
1787774837 23.33° C 53% 1032.5 hPa 0 mm - 103 W/m² -
1787774536 24.44° C 50% 1032.1 hPa 0 mm - 146 W/m² -
1787774236 25° C 50% 1032.2 hPa 0 mm - 251 W/m² -
1787773935 25.56° C 49% 1032.5 hPa 0 mm - 515 W/m² -
1787773634 25.56° C 49% 1032 hPa 0 mm - 682 W/m² -

* Rain latest hour (hover to see other rain measurements)
** Current wind speed in m/s (hover to see current wind gust speed)